Tracking 29487 objects as of 10-Sep-2024
HD Live streaming from Space Station
objects crossing your sky now

SITRO-AIS-8

Track SITRO-AIS-8 now!
10-day predictions
SITRO-AIS-8 is classified as:


NORAD ID: 57193
Int'l Code: 2023-091AD
Perigee: 528.1 km
Apogee: 551.2 km
Inclination: 97.6 °
Period: 95.3 minutes
Semi major axis: 6910 km
RCS: Unknown
Launch date: June 27, 2023
Source: (TBD)
Launch site: VOSTOCHNY COSMODROME (VOSTO)

Uplink (MHz):
Downlink (MHz): 401.230
Beacon (MHz):
Mode: 2k4 GMSK_USP
Call sign: SC2210
Status: Active

Your satellite tracking list
Your tracking list is empty




NASA's NSSDC Master Catalog

Two Line Element Set (TLE):
1 57193U 23091AD  24254.13949661  .00023998  00000-0  14243-2 0  9993
2 57193  97.6038 305.8136 0016706 186.5023 173.5993 15.11207710 66320
Source of the keplerian elements: AFSPC